This is the latest recevied weather packets stored in our database for station/object W9WRP. If no packets are shown the sender has not sent any weather packets the latest 10 day(s).
| Time | Temp. | Humidity | Pressure | Rain* | Wind** | Luminosity | Snow |
|---|---|---|---|---|---|---|---|
| 1787940490 | 39.44° C | 24% | 1016.7 hPa | 0 mm | - | 440 W/m² | - |
| 1787940184 | 38.89° C | 24% | 1016.5 hPa | 0 mm | - | 482 W/m² | - |
| 1787939883 | 38.89° C | 25% | 1016.6 hPa | 0 mm | - | 386 W/m² | - |
| 1787939578 | 38.89° C | 24% | 1016.5 hPa | 0 mm | - | 496 W/m² | - |
| 1787939273 | 38.89° C | 25% | 1016.6 hPa | 0 mm | - | 460 W/m² | - |
| 1787938968 | 38.89° C | 24% | 1016.8 hPa | 0 mm | - | 471 W/m² | - |
| 1787938666 | 38.33° C | 25% | 1016.7 hPa | 0 mm | - | 395 W/m² | - |
| 1787938364 | 38.33° C | 25% | 1016.8 hPa | 0 mm | - | 420 W/m² | - |
| 1787938064 | 38.89° C | 24% | 1016.6 hPa | 0 mm | - | 518 W/m² | - |
| 1787937759 | 38.89° C | 24% | 1016.7 hPa | 0 mm | - | 456 W/m² | - |
| 1787937455 | 37.78° C | 25% | 1017 hPa | 0 mm | - | 419 W/m² | - |
| 1787937151 | 38.33° C | 25% | 1016.6 hPa | 0 mm | - | 288 W/m² | - |
| 1787936845 | 38.33° C | 25% | 1016.8 hPa | 0 mm | - | 279 W/m² | - |
| 1787936540 | 37.78° C | 25% | 1016.8 hPa | 0 mm | - | 345 W/m² | - |
| 1787936239 | 37.78° C | 25% | 1016.9 hPa | 0 mm | - | 490 W/m² | - |
| 1787935935 | 38.33° C | 25% | 1016.8 hPa | 0 mm | - | 237 W/m² | - |
| 1787935636 | 38.33° C | 25% | 1016.6 hPa | 0 mm | - | 267 W/m² | - |
| 1787935333 | 37.78° C | 27% | 1016.6 hPa | 0 mm | - | 134 W/m² | - |
| 1787935032 | 37.78° C | 27% | 1016.7 hPa | 0 mm | - | 318 W/m² | - |
| 1787934727 | 37.78° C | 27% | 1016.5 hPa | 0 mm | - | 165 W/m² | - |
| 1787934426 | 37.22° C | 27% | 1016.7 hPa | 0 mm | - | 93 W/m² | - |
| 1787934121 | 37.22° C | 27% | 1016.7 hPa | 0 mm | - | 99 W/m² | - |
| 1787933819 | 36.67° C | 28% | 1016.5 hPa | 0 mm | - | 131 W/m² | - |
| 1787933515 | 37.22° C | 28% | 1016.8 hPa | 0 mm | - | 135 W/m² | - |
| 1787933209 | 37.22° C | 28% | 1016.8 hPa | 0 mm | - | 208 W/m² | - |
* Rain latest hour (hover to see other rain measurements)
** Current wind speed in m/s (hover to see current wind gust speed)